[[{"header":{"parameterUnit":"m.s-1","parameterCategory":1,"la1":30.2991,"la2":30.254,"lo1":-89.0895,"lo2":-89.0444,"dy":0.0017,"dx":0.0017,"nx":28,"ny":28,"refTime":"2023-08-25T09:00:00:Z","depth":0,"parameterNumber":2,"parameterNumberName":"U-component_of_WINDS"},"data":[0,0,0,0,0,0,0,0,0,0,0,0,0,0,0,0,0,0,0,0,0,0,0,0,0,0,0,0,0,0,0,0,0,0,0,0,0,0,0,0,0,0,0,0,0,0,0,0,0,0,0,0,0,0,0,0,0,0,-0.5397,-0.5398,0,-0.5435,-0.5435,-0.5435,-0.5421,-0.542,-0.5419,-0.5418,-0.5462,-0.5464,-0.5466,0,0,0,0,0,0,0,0,0,0,0,0,0,-0.5319,-0.532,-0.5397,-0.5398,-0.5398,-0.5435,-0.5435,-0.5436,-0.5421,-0.542,-0.5419,-0.5418,-0.5461,-0.5464,-0.5466,0,0,0,0,0,0,0,0,0,0,0,0,0,-0.5354,-0.5321,-0.5397,-0.5395,-0.5395,-0.5434,-0.5435,-0.5436,-0.5421,-0.542,-0.5419,-0.5417,-0.5461,-0.5464,-0.5467,-0.5512,0,0,-0.5476,-0.5477,0,0,0,0,0,0,0,0,-0.5352,-0.5357,-0.5395,-0.5395,-0.5396,-0.5422,-0.5423,-0.5461,-0.5422,-0.5412,-0.5418,-0.5417,-0.545,-0.5454,-0.5464,-0.5514,-0.5516,-0.5476,-0.5478,-0.5479,-0.548,0,0,0,0,0,0,0,-0.535,-0.5356,-0.5412,-0.5396,-0.5396,-0.5394,-0.5398,-0.5431,-0.5438,-0.5412,-0.5411,-0.5416,-0.545,-0.5461,-0.5465,-0.5516,-0.5476,-0.5479,-0.548,-0.5482,-0.5606,-0.5608,0,0,0,0,0,0,-0.5347,-0.5354,-0.5411,-0.5413,-0.537,-0.5397,-0.5401,-0.5415,-0.5438,-0.544,-0.5417,-0.5415,-0.5457,-0.5461,-0.5466,-0.5521,-0.5479,-0.5482,-0.5484,-0.5605,-0.5607,-0.5608,0,0,0,0,0,0,-0.5345,-0.5352,-0.541,-0.5383,-0.539,-0.5399,-0.5415,-0.5416,-0.5427,-0.5441,-0.5443,-0.5426,-0.5456,-0.5462,-0.55,-0.5523,-0.5483,-0.5486,-0.5603,-0.5605,-0.5607,-0.5632,0,0,0,0,0,0,-0.5343,-0.5351,-0.5367,-0.5384,-0.5392,-0.5441,-0.5417,-0.5418,-0.5432,-0.5429,-0.545,-0.5453,-0.5455,-0.5496,-0.5503,-0.5526,-0.5488,-0.5601,-0.5604,-0.5607,-0.5629,-0.5634,-0.5639,0,0,0,0,0,-0.534,-0.5374,-0.5368,-0.5375,-0.5412,-0.5443,-0.5447,-0.5448,-0.5433,-0.5451,-0.5459,-0.5452,-0.5519,-0.55,-0.5508,-0.5532,-0.56,-0.5603,-0.5606,-0.5627,-0.5633,-0.5639,0,0,0,0,0,0,-0.5362,-0.5376,-0.537,-0.5409,-0.5425,-0.544,-0.5461,-0.5455,-0.5477,-0.5474,-0.5476,-0.5481,-0.552,-0.553,-0.5509,-0.5578,-0.5557,-0.5563,-0.557,-0.5576,-0.5581,-0.5579,-0.5491,0,0,0,0,0,-0.5371,-0.5393,-0.5405,-0.5439,-0.5446,-0.5453,-0.5466,-0.5465,-0.5482,-0.5489,-0.5501,-0.5519,-0.5544,-0.5561,-0.5584,-0.563,-0.5635,-0.5651,-0.5656,-0.566,-0.5665,-0.5691,-0.5698,-0.5619,-0.5619,-0.5619,0,0,-0.5391,-0.5401,-0.5415,-0.5443,-0.5455,-0.548,-0.5458,-0.5485,-0.5504,-0.5494,-0.553,-0.5539,-0.556,-0.5602,-0.5621,-0.5611,-0.5688,-0.5664,-0.5667,-0.567,-0.5695,-0.5703,-0.5709,-0.5622,-0.5621,-0.5621,0,0,-0.5439,-0.5448,-0.5478,-0.549,-0.5507,-0.5511,-0.5518,-0.5534,-0.5539,-0.5575,-0.5568,-0.5592,-0.5635,-0.565,-0.5663,-0.5717,-0.5712,-0.5725,-0.5752,-0.5778,-0.5784,-0.5789,-0.581,-0.5817,-0.573,-0.573,-0.573,0,-0.5462,-0.5497,-0.5495,-0.5522,-0.5535,-0.5524,-0.5556,-0.5568,-0.5593,-0.5603,-0.5591,-0.5645,-0.5658,-0.5704,-0.5717,-0.5728,-0.5738,-0.5723,-0.5783,-0.5788,-0.5794,-0.5813,-0.5821,-0.5731,-0.5731,-0.5731,-0.5731,0,-0.5525,-0.5549,-0.5571,-0.5594,-0.5609,-0.5639,-0.5642,-0.5659,-0.5656,-0.5662,-0.57,-0.5715,-0.5742,-0.5753,-0.5751,-0.5799,-0.5792,-0.5782,-0.5761,-0.5803,-0.5821,-0.5829,-0.5734,-0.5733,-0.5732,-0.5732,0,0,-0.5589,-0.5609,-0.5617,-0.5627,-0.5646,-0.5666,-0.5695,-0.5719,-0.5734,-0.5752,-0.5777,-0.5814,-0.5804,-0.5819,-0.582,-0.5842,-0.5885,-0.5828,-0.5829,-0.5839,-0.594,-0.5948,-0.5957,-0.5881,-0.5882,-0.5883,-0.5938,0,-0.564,-0.5689,-0.5688,-0.5734,-0.5758,-0.5748,-0.5773,-0.5789,-0.5795,-0.5817,-0.5824,-0.585,-0.5835,-0.5844,-0.5865,-0.5875,-0.5905,-0.5871,-0.5907,-0.5908,-0.5903,-0.5966,-0.5975,-0.6027,-0.5945,-0.5946,-0.5947,0,-0.5706,-0.5724,-0.5772,-0.5787,-0.5797,-0.5819,-0.5842,-0.5863,-0.588,-0.5883,-0.59,-0.5897,-0.5928,-0.5906,-0.5951,-0.5928,-0.5942,-0.5949,-0.5951,-0.5956,-0.5931,-0.5974,-0.6043,-0.6051,-0.5958,-0.5958,-0.5957,0,-0.575,-0.5786,-0.5819,-0.5828,-0.5846,-0.5862,-0.5871,-0.5887,-0.5902,-0.5922,-0.5932,-0.5957,-0.597,-0.599,-0.5995,-0.5978,-0.604,-0.6018,-0.6045,-0.6045,-0.606,-0.6059,-0.6134,-0.6067,-0.6067,-0.6067,-0.6067,0,-0.5807,-0.5837,-0.5839,-0.586,-0.5894,-0.5893,-0.5927,-0.5935,-0.5949,-0.5972,-0.5966,-0.5989,-0.5992,-0.6017,-0.602,-0.6058,-0.6064,-0.6069,-0.607,-0.607,-0.6069,-0.608,-0.6077,-0.6069,-0.6069,-0.6068,-0.6068,0,-0.5862,-0.5864,-0.59,-0.5913,-0.5917,-0.5942,-0.5954,-0.5975,-0.598,-0.601,-0.6017,-0.6026,-0.6054,-0.606,-0.6094,-0.6097,-0.6141,-0.6138,-0.6135,-0.6135,-0.6162,-0.616,-0.6247,-0.6259,-0.6184,-0.6185,-0.6185,0,-0.5899,-0.5922,-0.5937,-0.5951,-0.596,-0.5983,-0.5998,-0.5998,-0.6014,-0.6035,-0.6054,-0.6081,-0.6102,-0.6148,-0.6159,-0.6185,-0.6183,-0.6212,-0.6188,-0.6187,-0.6185,-0.6184,-0.6187,-0.6217,-0.6218,-0.6219,-0.6219,0,-0.5966,-0.5965,-0.5985,-0.6006,-0.6023,-0.604,-0.6056,-0.6069,-0.6071,-0.6089,-0.6117,-0.6133,-0.6167,-0.6195,-0.6221,-0.6232,-0.6227,-0.6227,-0.6235,-0.6236,-0.6233,-0.6236,-0.6149,-0.6225,-0.6225,-0.6224,-0.6224,-0.6224,-0.6014,-0.6034,-0.6047,-0.607,-0.6081,-0.6096,-0.6116,-0.6123,-0.6145,-0.6171,-0.617,-0.6201,-0.6219,-0.6253,-0.6265,-0.6291,-0.6282,-0.6293,-0.6296,-0.6299,-0.6302,-0.6228,-0.6295,-0.6295,-0.6295,-0.6295,-0.6295,0,-0.6081,-0.6088,-0.6109,-0.6131,-0.6149,-0.614,-0.6157,-0.6174,-0.62,-0.6216,-0.6236,-0.6269,-0.6295,-0.6308,-0.6334,-0.6352,-0.6351,-0.636,-0.6359,-0.6362,-0.6308,-0.6299,-0.636,-0.636,-0.636,-0.636,-0.636,-0.636,-0.6118,-0.6151,-0.6152,-0.6192,-0.62,-0.6228,-0.6239,-0.6253,-0.6265,-0.6301,-0.6322,-0.6329,-0.6344,-0.6372,-0.6396,-0.6399,-0.641,-0.642,-0.6423,-0.6372,-0.6366,-0.6359,-0.6351,-0.6422,-0.6422,-0.6475,-0.6475,-0.6476]},{"header":{"parameterUnit":"m.s-1","parameterCategory":1,"la1":30.2991,"la2":30.254,"lo1":-89.0895,"lo2":-89.0444,"dy":0.0017,"dx":0.0017,"nx":28,"ny":28,"refTime":"2023-08-25T09:00:00:Z","depth":0,"parameterNumber":3,"parameterNumberName":"V-component_of_WINDS"},"data":[0,0,0,0,0,0,0,0,0,0,0,0,0,0,0,0,0,0,0,0,0,0,0,0,0,0,0,0,0,0,0,0,0,0,0,0,0,0,0,0,0,0,0,0,0,0,0,0,0,0,0,0,0,0,0,0,0,0,1.2493,1.2493,0,1.2546,1.2547,1.2548,1.2554,1.2553,1.2552,1.2552,1.2604,1.2606,1.2608,0,0,0,0,0,0,0,0,0,0,0,0,0,1.2394,1.2395,1.2493,1.2493,1.2494,1.2546,1.2547,1.2548,1.2554,1.2553,1.2552,1.2552,1.2604,1.2606,1.2608,0,0,0,0,0,0,0,0,0,0,0,0,0,1.2441,1.2396,1.2492,1.2503,1.2505,1.2546,1.2547,1.2548,1.2554,1.2553,1.2552,1.2551,1.2603,1.2606,1.2608,1.2642,0,0,1.2617,1.2618,0,0,0,0,0,0,0,0,1.2438,1.2444,1.2501,1.2503,1.2504,1.2543,1.2531,1.2579,1.2554,1.2535,1.2552,1.2551,1.2584,1.2588,1.26,1.2644,1.2647,1.2617,1.2619,1.262,1.2621,0,0,0,0,0,0,0,1.2435,1.2442,1.2514,1.2502,1.2504,1.2505,1.2511,1.254,1.2563,1.2537,1.2537,1.2544,1.2585,1.2597,1.2601,1.2647,1.2617,1.262,1.2622,1.2623,1.2723,1.2724,0,0,0,0,0,0,1.243,1.2439,1.2512,1.2515,1.2469,1.2507,1.2514,1.2531,1.2563,1.2567,1.2544,1.2544,1.2593,1.2598,1.2603,1.2645,1.262,1.2623,1.2625,1.2722,1.2723,1.2724,0,0,0,0,0,0,1.2428,1.2436,1.251,1.2478,1.2487,1.251,1.2529,1.2532,1.2545,1.2569,1.2573,1.2553,1.2593,1.2599,1.2633,1.2647,1.2624,1.2627,1.2721,1.2722,1.2724,1.2728,0,0,0,0,0,0,1.2425,1.2435,1.2448,1.2478,1.2489,1.2539,1.253,1.2534,1.255,1.255,1.2578,1.2582,1.2593,1.2629,1.2636,1.265,1.2629,1.272,1.2722,1.2723,1.2727,1.273,1.2732,0,0,0,0,0,1.2421,1.2447,1.2449,1.2458,1.2506,1.2539,1.2546,1.2558,1.2551,1.2565,1.258,1.2581,1.2645,1.2632,1.264,1.2656,1.2719,1.2721,1.2723,1.2726,1.2729,1.2732,0,0,0,0,0,0,1.2416,1.2451,1.2454,1.2489,1.2512,1.254,1.2557,1.2561,1.2585,1.2583,1.2597,1.2604,1.2636,1.265,1.2635,1.2691,1.2681,1.2685,1.268,1.2684,1.2686,1.2681,1.2631,0,0,0,0,0,1.242,1.2445,1.2473,1.2502,1.2514,1.2534,1.2549,1.2557,1.258,1.2589,1.2607,1.2629,1.2654,1.267,1.2694,1.273,1.2736,1.2745,1.2747,1.2749,1.2752,1.2772,1.2777,1.2731,1.2731,1.2731,0,0,1.2427,1.2448,1.2463,1.2502,1.252,1.2546,1.2541,1.2568,1.2587,1.2593,1.2625,1.264,1.2665,1.27,1.2716,1.2712,1.2766,1.2752,1.2754,1.2755,1.2775,1.2779,1.2783,1.2733,1.2733,1.2732,0,0,1.2451,1.2471,1.2497,1.2516,1.2545,1.2558,1.2565,1.2594,1.2604,1.2637,1.2643,1.2665,1.2708,1.2726,1.2741,1.2776,1.2778,1.2784,1.2796,1.2816,1.282,1.2823,1.2835,1.2839,1.2787,1.2787,1.2787,0,1.2455,1.2495,1.251,1.2537,1.2554,1.2563,1.259,1.2607,1.2641,1.2653,1.2648,1.2703,1.2721,1.2761,1.2769,1.2781,1.2789,1.2779,1.2818,1.2821,1.2825,1.2836,1.2841,1.2787,1.2787,1.2787,1.2787,0,1.2498,1.2526,1.2544,1.2578,1.2598,1.2624,1.2644,1.2661,1.2669,1.2683,1.2717,1.274,1.2769,1.278,1.2786,1.2821,1.2817,1.2815,1.2806,1.2829,1.284,1.2845,1.2788,1.2788,1.2787,1.2787,0,0,1.2519,1.2564,1.257,1.2586,1.262,1.2641,1.2669,1.2699,1.2713,1.2738,1.2761,1.2799,1.2798,1.2815,1.2824,1.2842,1.2868,1.2838,1.2838,1.2842,1.2907,1.2907,1.2912,1.287,1.2871,1.2872,1.2905,0,1.2547,1.2597,1.2613,1.2655,1.268,1.269,1.2715,1.2737,1.2752,1.2776,1.2792,1.2818,1.2815,1.2826,1.2844,1.2861,1.2881,1.2859,1.2891,1.2892,1.2883,1.2918,1.2918,1.2948,1.291,1.291,1.2911,0,1.2585,1.2612,1.2657,1.2688,1.2699,1.2721,1.2751,1.2773,1.28,1.281,1.283,1.2838,1.2868,1.2859,1.29,1.2884,1.2899,1.291,1.2911,1.2913,1.2902,1.292,1.2958,1.2962,1.2918,1.2917,1.2917,0,1.2595,1.2642,1.2675,1.2689,1.2727,1.2742,1.2758,1.2784,1.2802,1.2828,1.2839,1.2868,1.2884,1.2906,1.2922,1.2914,1.2962,1.2954,1.297,1.297,1.2978,1.2977,1.3017,1.299,1.299,1.299,1.2989,0,1.2624,1.265,1.268,1.27,1.2731,1.2749,1.2779,1.2796,1.282,1.2843,1.2854,1.2875,1.2896,1.2921,1.2934,1.2966,1.2973,1.2981,1.2984,1.298,1.2978,1.2988,1.2986,1.2991,1.299,1.299,1.299,0,1.2638,1.266,1.2696,1.273,1.2739,1.276,1.2789,1.2809,1.2825,1.2855,1.2863,1.2888,1.2918,1.2937,1.2975,1.2984,1.3019,1.3021,1.301,1.3011,1.3026,1.3024,1.3072,1.3079,1.3048,1.3049,1.3049,0,1.2655,1.2676,1.2712,1.273,1.2746,1.2774,1.2792,1.2812,1.2831,1.2865,1.288,1.2912,1.2937,1.2984,1.3006,1.3035,1.3038,1.3053,1.3042,1.3037,1.3037,1.3035,1.3037,1.3054,1.3054,1.3054,1.3055,0,1.2681,1.2691,1.2718,1.2749,1.2771,1.2797,1.2822,1.2835,1.2859,1.288,1.2911,1.2931,1.2971,1.3002,1.3033,1.305,1.3056,1.3059,1.3064,1.3058,1.305,1.3054,1.3013,1.3057,1.3056,1.3056,1.3056,1.3056,1.2696,1.2716,1.2745,1.2775,1.2797,1.282,1.2841,1.2861,1.2888,1.2922,1.2933,1.2965,1.2993,1.3037,1.3054,1.308,1.3078,1.3086,1.3087,1.3088,1.3088,1.3048,1.3086,1.3086,1.3086,1.3086,1.3086,0,1.2722,1.2742,1.277,1.2806,1.2829,1.2836,1.2864,1.2884,1.2912,1.2938,1.2964,1.3001,1.3031,1.3056,1.3088,1.3103,1.3107,1.3111,1.3109,1.3113,1.3089,1.3081,1.3107,1.3107,1.3107,1.3107,1.3107,1.3107,1.2738,1.2772,1.2786,1.283,1.285,1.2883,1.2899,1.2921,1.2942,1.2983,1.3009,1.3025,1.3051,1.3085,1.3113,1.312,1.3131,1.3133,1.314,1.3117,1.3114,1.3112,1.3105,1.3136,1.3136,1.3163,1.3163,1.3163]}]]